N8FIS Weather Reports


Display with metric or nautical units.
time (UTC)temp
F
wind
direction
speed
MPH
gust
MPH
rain 1hr
in
rain 24hr
in
rain mn
in
humidity
%
barometer
mb
20260903034227 81 215 2.0 7.0 0.00 0.00 0.00 83 1011.8
20260903033734 81 209 4.0 7.0 0.00 0.00 0.00 83 1011.9
20260903033219 81 151 1.0 12.0 0.00 0.00 0.00 83 1011.7
20260903032725 81 308 5.0 12.0 0.00 0.00 0.00 83 1011.7
20260903032227 81 252 2.0 6.0 0.00 0.00 0.00 83 1011.7
20260903031734 81 285 2.0 9.0 0.00 0.00 0.00 83 1011.6
20260903031220 81 216 2.0 9.0 0.00 0.00 0.00 84 1011.5
20260903030729 81 214 3.0 9.0 0.00 0.00 0.00 84 1011.6
20260903030216 81 227 3.0 6.0 0.00 0.00 0.00 84 1011.7
20260903025722 81 286 3.0 6.0 0.00 0.00 0.00 84 1011.8
20260903025229 81 180 2.0 7.0 0.00 0.00 0.00 84 1011.9
20260903024716 81 205 2.0 7.0 0.00 0.00 0.00 84 1012.0
20260903024223 81 180 2.0 6.0 0.00 0.00 0.00 83 1012.0
20260903023730 82 176 4.0 7.0 0.00 0.00 0.00 83 1012.1
20260903023216 82 163 4.0 7.0 0.00 0.00 0.00 83 1012.2
20260903022724 82 294 3.0 6.0 0.00 0.00 0.00 83 1012.3
20260903022230 82 217 2.0 6.0 0.00 0.00 0.00 82 1012.3
20260903021716 82 183 3.0 6.0 0.00 0.00 0.00 82 1012.3
20260903021227 82 170 1.0 6.0 0.00 0.00 0.00 82 1012.3
20260903020714 82 177 3.0 5.0 0.00 0.00 0.00 82 1012.4
20260903020237 82 197 3.0 5.0 0.00 0.00 0.00 81 1012.4
20260903015718 82 207 3.0 5.0 0.00 0.00 0.00 81 1012.4
20260903015224 82 204 2.0 7.0 0.00 0.00 0.00 81 1012.4
20260903014729 83 229 3.0 7.0 0.00 0.00 0.00 81 1012.4
20260903014217 83 200 1.0 4.0 0.00 0.00 0.00 81 1012.5
20260903013723 83 181 2.0 4.0 0.00 0.00 0.00 80 1012.4
20260903013229 83 202 1.0 4.0 0.00 0.00 0.00 80 1012.4
20260903012715 83 185 2.0 6.0 0.00 0.00 0.00 80 1012.4
20260903012221 83 236 1.0 7.0 0.00 0.00 0.00 79 1012.3
20260903011727 83 182 1.0 7.0 0.00 0.00 0.00 79 1012.4
20260903011215 83 264 3.0 5.0 0.00 0.00 0.00 79 1012.3
20260903010721 84 204 1.0 4.0 0.00 0.00 0.00 79 1012.2
20260903010228 84 182 2.0 5.0 0.00 0.00 0.00 78 1012.2
20260903005717 84 201 2.0 5.0 0.00 0.00 0.00 78 1012.0
20260903005223 84 221 1.0 4.0 0.00 0.00 0.00 77 1012.0
20260903004730 84 228 1.0 4.0 0.00 0.00 0.00 77 1012.0
20260903004241 85 196 2.0 4.0 0.00 0.00 0.00 76 1012.1
20260903003727 85 171 1.0 4.0 0.00 0.00 0.00 75 1012.1
20260903003214 85 194 0.0 5.0 0.00 0.00 0.00 74 1012.1
20260903002738 86 262 2.0 5.0 0.00 0.00 0.00 74 1012.0
20260903002224 86 271 2.0 4.0 0.00 0.00 0.00 73 1012.0
20260903001715 86 250 1.0 4.0 0.00 0.00 0.00 73 1012.1
20260903001222 86 267 2.0 4.0 0.00 0.00 0.00 72 1012.2
20260903000729 87 186 1.0 4.0 0.00 0.00 0.00 72 1012.1
20260903000241 87 237 2.0 4.0 0.00 0.00 0.00 72 1012.0
20260902235731 87 235 2.0 5.0 0.00 0.00 0.00 71 1012.0
20260902235217 88 242 3.0 6.0 0.00 0.00 0.00 70 1012.0
20260902234723 88 259 3.0 7.0 0.00 0.00 0.00 70 1012.1
20260902234228 88 250 3.0 7.0 0.00 0.00 0.00 69 1012.0
20260902233742 88 269 3.0 5.0 0.00 0.00 0.00 68 1012.0
20260902233228 89 274 1.0 6.0 0.00 0.00 0.00 68 1012.0
20260902232712 89 249 3.0 6.0 0.00 0.00 0.00 67 1012.1
20260902232218 89 277 3.0 9.0 0.00 0.00 0.00 67 1012.0
20260902231721 89 228 2.0 9.0 0.00 0.00 0.00 66 1012.0
20260902231225 90 200 3.0 9.0 0.00 0.00 0.00 66 1012.0
20260902230730 90 240 3.0 9.0 0.00 0.00 0.00 66 1012.0
20260902230219 90 221 1.0 9.0 0.00 0.01 0.00 66 1011.9
20260902225726 90 272 2.0 6.0 0.00 0.01 0.00 65 1011.9
20260902225215 91 205 1.0 7.0 0.00 0.01 0.00 65 1011.9
20260902224722 91 5 3.0 12.0 0.00 0.01 0.00 65 1012.0
20260902224227 91 206 5.0 12.0 0.00 0.01 0.00 64 1011.9
20260902223717 91 263 5.0 11.0 0.00 0.01 0.00 65 1011.9
20260902223225 92 229 3.0 9.0 0.00 0.01 0.00 64 1012.0
20260902222713 92 320 3.0 7.0 0.00 0.01 0.00 64 1012.0
20260902222219 92 238 3.0 10.0 0.00 0.01 0.00 63 1012.0
20260902221727 92 234 3.0 10.0 0.00 0.01 0.00 62 1012.0
20260902221233 92 273 2.0 7.0 0.00 0.01 0.00 63 1012.1
20260902220720 92 254 3.0 13.0 0.00 0.01 0.00 63 1012.0
20260902220224 92 166 5.0 13.0 0.00 0.03 0.00 62 1011.9
20260902215731 92 360 5.0 12.0 0.00 0.03 0.00 62 1012.0
20260902215216 93 236 5.0 12.0 0.00 0.03 0.00 62 1012.1
20260902214725 93 189 4.0 12.0 0.00 0.03 0.00 61 1012.1
20260902214212 93 205 4.0 12.0 0.00 0.03 0.00 62 1012.1
20260902213718 94 294 4.0 7.0 0.00 0.03 0.00 62 1012.2
20260902213223 94 228 3.0 13.0 0.00 0.03 0.00 62 1012.3
20260902212731 95 290 4.0 13.0 0.00 0.03 0.00 59 1012.3
20260902212216 96 330 5.0 11.0 0.00 0.03 0.00 58 1012.2
20260902211723 95 263 2.0 10.0 0.00 0.03 0.00 59 1012.2
20260902211230 95 280 5.0 10.0 0.00 0.03 0.00 58 1012.3
20260902210716 95 275 4.0 12.0 0.00 0.03 0.00 57 1012.2
20260902210224 95 275 4.0 12.0 0.00 0.03 0.00 58 1012.3
20260902205731 95 259 3.0 11.0 0.00 0.03 0.00 58 1012.4
20260902205217 95 286 4.0 11.0 0.00 0.03 0.00 57 1012.4
20260902204722 95 278 3.0 14.0 0.00 0.03 0.00 57 1012.4
20260902204228 95 234 5.0 14.0 0.00 0.03 0.00 58 1012.5
20260902203715 95 240 4.0 10.0 0.00 0.03 0.00 59 1012.6
20260902203223 95 279 3.0 9.0 0.00 0.03 0.00 60 1012.7
20260902202731 95 285 3.0 10.0 0.00 0.03 0.00 60 1012.6
20260902202233 95 209 2.0 10.0 0.00 0.03 0.00 60 1012.8
20260902201719 95 242 6.0 10.0 0.00 0.03 0.00 58 1012.8
20260902201226 95 311 2.0 12.0 0.00 0.03 0.00 59 1012.8
20260902200731 95 355 4.0 12.0 0.00 0.03 0.00 58 1013.0
20260902200237 95 298 6.0 12.0 0.00 0.03 0.00 57 1012.9
20260902195726 95 286 3.0 12.0 0.00 0.03 0.00 60 1012.9
20260902195213 95 276 6.0 12.0 0.00 0.03 0.00 61 1013.0
20260902194721 95 333 4.0 11.0 0.00 0.03 0.00 61 1013.0
20260902194225 94 317 2.0 11.0 0.00 0.03 0.00 63 1013.1
20260902193728 94 221 5.0 10.0 0.00 0.03 0.00 63 1013.2
20260902193215 94 69 5.0 10.0 0.00 0.03 0.00 61 1013.3
20260902192722 94 360 5.0 10.0 0.00 0.03 0.00 61 1013.3
20260902192230 94 245 2.0 7.0 0.00 0.03 0.00 61 1013.3
20260902191716 94 281 2.0 12.0 0.00 0.03 0.00 61 1013.4
20260902191224 94 335 5.0 16.0 0.00 0.03 0.00 60 1013.4
20260902190713 94 211 5.0 13.0 0.00 0.03 0.00 61 1013.5
20260902190213 94 275 4.0 11.0 0.00 0.03 0.00 63 1013.5
20260902185718 94 265 5.0 11.0 0.00 0.03 0.00 64 1013.6
20260902185225 94 204 3.0 13.0 0.00 0.03 0.00 63 1013.6
20260902184739 94 182 5.0 13.0 0.00 0.03 0.00 60 1013.6
20260902184223 94 244 4.0 11.0 0.00 0.03 0.00 61 1013.8
20260902183730 93 273 5.0 13.0 0.00 0.03 0.00 61 1013.8
20260902183218 93 236 5.0 13.0 0.00 0.03 0.00 61 1013.8
20260902182724 94 194 4.0 12.0 0.00 0.03 0.00 61 1013.8
20260902182230 94 193 6.0 12.0 0.00 0.03 0.00 63 1013.9
20260902181716 94 277 2.0 10.0 0.00 0.03 0.00 63 1013.9
20260902181224 93 257 2.0 10.0 0.00 0.03 0.00 65 1013.9
20260902180712 94 231 4.0 9.0 0.00 0.03 0.00 64 1013.9
20260902180220 94 209 2.0 11.0 0.00 0.03 0.00 66 1013.9
20260902175727 93 238 3.0 11.0 0.00 0.03 0.00 67 1014.0
20260902175213 92 193 2.0 11.0 0.00 0.03 0.00 67 1014.1
20260902174738 92 222 5.0 11.0 0.00 0.03 0.00 67 1014.2
20260902174217 92 229 3.0 9.0 0.00 0.03 0.00 69 1014.2
20260902173728 92 232 2.0 9.0 0.00 0.03 0.00 67 1014.3
20260902173219 92 277 3.0 7.0 0.00 0.03 0.00 67 1014.3
20260902172725 92 281 2.0 9.0 0.00 0.03 0.00 69 1014.3
20260902172213 91 173 3.0 9.0 0.00 0.03 0.00 68 1014.4
20260902171718 92 296 2.0 9.0 0.00 0.03 0.00 68 1014.5
20260902171223 92 252 4.0 9.0 0.00 0.03 0.00 68 1014.5
20260902170712 91 273 4.0 9.0 0.00 0.03 0.00 69 1014.4
20260902170221 91 249 5.0 9.0 0.00 0.03 0.00 68 1014.5
20260902165728 92 275 3.0 11.0 0.00 0.03 0.00 68 1014.6
20260902165215 92 195 3.0 6.0 0.00 0.03 0.00 70 1014.7
20260902164721 91 302 3.0 9.0 0.00 0.03 0.00 70 1014.9
20260902164228 91 209 4.0 9.0 0.00 0.03 0.00 70 1015.0
20260902163717 91 360 4.0 6.0 0.00 0.03 0.00 69 1015.1
20260902163246 90 259 2.0 9.0 0.00 0.03 0.00 72 1015.1
20260902162714 90 273 4.0 9.0 0.00 0.03 0.00 72 1015.1
20260902162220 89 274 4.0 10.0 0.00 0.03 0.00 71 1015.0
20260902161726 89 290 3.0 10.0 0.00 0.03 0.00 71 1015.1
20260902161236 89 271 2.0 9.0 0.00 0.03 0.00 73 1015.1
20260902160723 88 218 2.0 10.0 0.00 0.03 0.00 73 1015.0
20260902160230 88 241 2.0 10.0 0.00 0.03 0.00 72 1015.1
20260902155741 89 221 3.0 7.0 0.00 0.03 0.00 72 1015.0
20260902155229 89 185 2.0 7.0 0.00 0.03 0.00 74 1015.0
20260902154716 88 250 2.0 7.0 0.00 0.03 0.00 74 1015.0
20260902154224 88 349 2.0 9.0 0.00 0.03 0.00 74 1014.9
20260902153731 88 236 4.0 9.0 0.00 0.03 0.00 72 1014.9
20260902153216 88 268 3.0 7.0 0.00 0.03 0.00 72 1015.0
20260902152724 88 172 4.0 8.0 0.00 0.03 0.00 73 1015.0
20260902152231 87 254 3.0 8.0 0.00 0.03 0.00 74 1015.0
20260902151743 87 337 1.0 8.0 0.00 0.03 0.00 75 1014.9
20260902151230 87 262 2.0 9.0 0.00 0.03 0.00 76 1014.8
20260902150745 87 265 3.0 9.0 0.00 0.03 0.00 76 1014.8
20260902150211 87 257 4.0 7.0 0.00 0.03 0.00 75 1014.8
20260902145713 86 266 2.0 9.0 0.00 0.03 0.00 77 1014.7
20260902145221 86 200 2.0 9.0 0.00 0.03 0.00 77 1014.7
20260902144727 85 134 3.0 6.0 0.00 0.03 0.00 77 1014.7
20260902144214 86 141 2.0 7.0 0.00 0.03 0.00 77 1014.7
20260902143721 85 211 2.0 7.0 0.00 0.03 0.00 77 1014.7
20260902143226 85 273 2.0 6.0 0.00 0.03 0.00 79 1014.6
20260902142711 85 209 1.0 7.0 0.00 0.03 0.00 80 1014.7
20260902142216 84 245 5.0 7.0 0.00 0.03 0.00 80 1014.7
20260902141723 84 187 3.0 6.0 0.00 0.03 0.00 81 1014.6
20260902141229 84 242 3.0 6.0 0.00 0.03 0.00 81 1014.6
20260902140742 83 257 3.0 6.0 0.00 0.03 0.00 82 1014.7
20260902140228 83 236 2.0 6.0 0.00 0.03 0.00 82 1014.7
20260902135714 82 278 3.0 6.0 0.00 0.03 0.00 82 1014.7
20260902135224 82 203 3.0 5.0 0.00 0.03 0.00 84 1014.7
20260902134712 81 160 2.0 6.0 0.00 0.03 0.00 85 1014.7
20260902134218 81 231 2.0 6.0 0.00 0.03 0.00 85 1014.6
20260902133724 81 211 2.0 6.0 0.00 0.03 0.00 86 1014.7
20260902133230 80 257 3.0 6.0 0.00 0.03 0.00 86 1014.6
20260902132742 80 250 2.0 6.0 0.00 0.03 0.00 88 1014.7
20260902132227 79 227 2.0 6.0 0.00 0.03 0.00 89 1014.8
20260902131733 78 221 2.0 4.0 0.00 0.03 0.00 90 1014.7
20260902131219 78 189 0.0 5.0 0.00 0.03 0.00 91 1014.7
20260902130727 77 261 3.0 5.0 0.00 0.03 0.00 91 1014.7
20260902130212 77 184 2.0 7.0 0.00 0.00 0.00 92 1014.6
20260902125720 76 246 5.0 7.0 0.00 0.00 0.00 93 1014.7
20260902125225 76 197 3.0 6.0 0.00 0.00 0.00 93 1014.8
20260902124711 75 194 2.0 6.0 0.00 0.00 0.00 94 1014.7
20260902124245 75 172 3.0 6.0 0.00 0.00 0.00 94 1014.8
20260902123729 75 178 2.0 5.0 0.00 0.00 0.00 94 1014.8
20260902123216 75 182 2.0 5.0 0.00 0.00 0.00 94 1014.8
20260902122745 75 205 2.0 5.0 0.00 0.00 0.00 94 1014.8
20260902122230 75 190 2.0 5.0 0.00 0.00 0.00 94 1014.8
20260902121716 75 171 2.0 4.0 0.00 0.00 0.00 94 1014.8
20260902121251 75 178 2.0 4.0 0.00 0.00 0.00 95 1014.8
20260902120717 75 256 0.0 4.0 0.00 0.00 0.00 95 1014.7
20260902120222 74 243 2.0 4.0 0.00 0.00 0.00 95 1014.7
20260902115729 74 221 0.0 4.0 0.00 0.00 0.00 95 1014.6
20260902115216 74 178 3.0 5.0 0.00 0.00 0.00 95 1014.6
20260902114748 74 252 1.0 5.0 0.00 0.00 0.00 95 1014.7
20260902114212 74 252 1.0 4.0 0.00 0.00 0.00 95 1014.5
20260902113717 74 225 2.0 3.0 0.00 0.00 0.00 95 1014.4
20260902113223 74 202 0.0 3.0 0.00 0.00 0.00 95 1014.3
20260902112715 74 194 2.0 3.0 0.00 0.00 0.00 95 1014.3
20260902112247 74 221 2.0 3.0 0.00 0.00 0.00 95 1014.3
20260902111712 74 192 1.0 3.0 0.00 0.00 0.00 95 1014.2
20260902111216 74 184 1.0 4.0 0.00 0.00 0.00 95 1014.2
20260902110723 74 255 0.0 4.0 0.00 0.00 0.00 95 1014.1
20260902110229 74 263 0.0 3.0 0.00 0.00 0.00 95 1014.1
20260902105714 74 263 0.0 3.0 0.00 0.00 0.00 95 1014.2
20260902105245 74 263 1.0 3.0 0.00 0.00 0.00 95 1014.2
20260902104730 74 239 1.0 2.0 0.00 0.00 0.00 95 1014.2
20260902104216 74 213 0.0 2.0 0.00 0.00 0.00 95 1014.2
20260902103746 74 231 1.0 3.0 0.00 0.00 0.00 95 1014.3
20260902103212 74 239 1.0 3.0 0.00 0.00 0.00 95 1014.3
20260902102718 74 255 0.0 3.0 0.00 0.00 0.00 95 1014.3
20260902102223 74 251 1.0 3.0 0.00 0.00 0.00 95 1014.3
20260902101730 74 273 1.0 3.0 0.00 0.00 0.00 95 1014.2
20260902101218 74 270 1.0 3.0 0.00 0.00 0.00 95 1014.2
20260902100749 74 249 0.0 3.0 0.00 0.00 0.00 95 1014.2
20260902100231 75 252 0.0 4.0 0.00 0.00 0.00 95 1014.3
20260902095742 75 234 0.0 4.0 0.00 0.00 0.00 95 1014.2
20260902095227 75 229 0.0 3.0 0.00 0.00 0.00 95 1014.1
20260902094713 75 231 1.0 3.0 0.00 0.00 0.00 95 1014.2
20260902094219 75 246 1.0 4.0 0.00 0.00 0.00 95 1014.1
20260902093727 75 209 0.0 4.0 0.00 0.00 0.00 95 1014.1
20260902093215 75 177 1.0 4.0 0.00 0.00 0.00 95 1014.0
20260902092723 75 188 2.0 4.0 0.00 0.00 0.00 95 1014.0
20260902092238 75 267 2.0 3.0 0.00 0.00 0.00 95 1014.1
20260902091748 75 215 2.0 3.0 0.00 0.00 0.00 95 1014.1
20260902091232 75 183 1.0 3.0 0.00 0.00 0.00 95 1014.1
20260902090723 75 181 1.0 3.0 0.00 0.00 0.00 95 1014.2
20260902090229 75 187 1.0 3.0 0.00 0.00 0.00 95 1014.2
20260902085715 75 190 0.0 2.0 0.00 0.00 0.00 96 1014.2
20260902085219 75 190 0.0 3.0 0.00 0.00 0.00 96 1014.2
20260902084725 75 184 2.0 3.0 0.00 0.00 0.00 96 1014.2
20260902084212 75 171 1.0 3.0 0.00 0.00 0.00 96 1014.2
20260902083719 75 171 1.0 3.0 0.00 0.00 0.00 96 1014.3
20260902083225 75 178 1.0 3.0 0.00 0.00 0.00 96 1014.1
20260902082710 75 178 1.0 3.0 0.00 0.00 0.00 96 1014.1
20260902082219 74 174 0.0 3.0 0.00 0.00 0.00 97 1014.1
20260902081726 74 182 0.0 3.0 0.00 0.00 0.00 97 1014.1
20260902081213 74 161 1.0 3.0 0.00 0.00 0.00 97 1014.0
20260902080719 74 219 0.0 2.0 0.00 0.00 0.00 97 1014.0
20260902080251 74 219 1.0 3.0 0.00 0.00 0.00 97 1013.9
20260902075741 74 163 0.0 3.0 0.00 0.00 0.00 97 1013.8
20260902075226 74 188 1.0 2.0 0.00 0.00 0.00 97 1013.7
20260902074712 74 186 0.0 4.0 0.00 0.00 0.00 97 1013.8
20260902074245 74 190 1.0 4.0 0.00 0.00 0.00 97 1013.8
20260902073725 74 189 1.0 4.0 0.00 0.00 0.00 97 1013.6
20260902073211 74 200 1.0 4.0 0.00 0.00 0.00 97 1013.6
20260902072718 74 182 1.0 4.0 0.00 0.00 0.00 97 1013.6
20260902072225 74 188 2.0 4.0 0.00 0.00 0.00 97 1013.6
20260902071713 74 184 1.0 3.0 0.00 0.00 0.00 97 1013.6
20260902071220 74 184 1.0 5.0 0.00 0.00 0.00 97 1013.6
20260902070728 74 178 2.0 5.0 0.00 0.00 0.00 97 1013.6
20260902070214 74 144 1.0 3.0 0.00 0.00 0.00 97 1013.6
20260902065720 74 173 0.0 0.0 0.00 0.00 0.00 97 1013.7
20260902065226 74 175 0.0 0.0 0.00 0.00 0.00 97 1013.8
20260902064713 74 167 0.0 0.0 0.00 0.00 0.00 97 1013.7
20260902064218 74 172 0.0 3.0 0.00 0.00 0.00 98 1013.7
20260902063724 74 171 1.0 3.0 0.00 0.00 0.00 98 1013.8
20260902063230 74 146 0.0 2.0 0.00 0.00 0.00 98 1013.8
20260902062717 74 146 0.0 1.0 0.00 0.00 0.00 98 1013.8
20260902062227 74 146 0.0 1.0 0.00 0.00 0.00 97 1013.9
20260902061732 74 146 0.0 0.0 0.00 0.00 0.00 97 1013.9
20260902061215 75 146 0.0 0.0 0.00 0.00 0.00 97 1013.9
20260902060726 75 146 0.0 0.0 0.00 0.00 0.00 97 1013.9
20260902060212 75 146 0.0 0.0 0.00 0.00 0.00 97 1014.0
20260902055721 75 146 0.0 0.0 0.00 0.00 0.00 97 1014.0
20260902055228 75 146 0.0 0.0 0.00 0.00 0.00 97 1014.0
20260902054740 75 146 0.0 0.0 0.00 0.00 0.00 97 1014.2
20260902054226 75 146 0.0 0.0 0.00 0.00 0.00 97 1014.2
20260902053717 75 146 0.0 0.0 0.00 0.00 0.00 97 1014.2
20260902053224 75 146 0.0 0.0 0.00 0.00 0.00 97 1014.2
20260902052730 75 146 0.0 0.0 0.00 0.00 0.00 97 1014.2
20260902052216 75 146 0.0 0.0 0.00 0.00 0.00 97 1014.2
20260902051725 75 146 0.0 0.0 0.00 0.00 0.00 97 1014.1
20260902051212 75 146 0.0 0.0 0.00 0.00 0.00 97 1014.1
20260902050720 75 146 0.0 0.0 0.00 0.00 0.00 97 1014.0
20260902050227 75 146 0.0 0.0 0.00 0.00 0.00 97 1014.1
20260902045714 75 146 0.0 0.0 0.00 0.00 0.00 97 1014.0
20260902045236 75 146 0.0 0.0 0.00 0.00 0.00 97 1014.0
20260902044722 75 146 0.0 0.0 0.00 0.00 0.00 97 1013.9
20260902044229 75 146 0.0 0.0 0.00 0.00 0.00 97 1013.8
20260902043716 75 146 0.0 0.0 0.00 0.00 0.00 97 1013.8
20260902043247 75 146 0.0 0.0 0.00 0.00 0.00 97 1013.7
20260902042738 75 146 0.0 0.0 0.00 0.00 0.00 97 1013.7
20260902042214 75 146 0.0 0.0 0.00 0.00 0.00 96 1013.7
20260902041745 76 146 0.0 2.0 0.00 0.00 0.00 96 1013.6
20260902041231 75 146 0.0 2.0 0.00 0.00 0.00 96 1013.6
20260902040736 75 146 1.0 2.0 0.00 0.00 0.00 96 1013.5
20260902040223 75 146 0.0 1.0 0.00 0.00 0.03 96 1013.6
20260902035720 75 146 0.0 1.0 0.00 0.00 0.03 96 1013.6
20260902035227 75 146 0.0 0.0 0.00 0.00 0.03 96 1013.6
20260902034713 75 146 0.0 1.0 0.00 0.00 0.03 96 1013.5